Weather History for Winona, MN

Change the Weather History Date:

Saturday, December 1, 2012

  Actual Average Record
Temperature  
Mean Temperature 38 °F -  
Max Temperature 44 °F 36 °F 64 °F (1998)
Min Temperature 33 °F 22 °F 3 °F (2014)
Degree Days  
Heating Degree Days 26    
Moisture  
Dew Point 36 °F    
Average Humidity 85    
Maximum Humidity 100    
Minimum Humidity 70    
Precipitation  
Precipitation 0.00 in - - ()
Sea Level Pressure  
Sea Level Pressure 29.89 in    
Wind  
Wind Speed 7 mph (SE)    
Max Wind Speed 10 mph    
Max Gust Speed -    
Visibility 3 miles    
Events      
Averages and records for this station are not official NWS values.
T = Trace of Precipitation, MM = Missing Value Source: NWS Daily Summary

Daily Weather History Graph

Daily Weather History Graph

Search for Another Location

Airport:

Trip Planner

Search our weather history database for the weather conditions in past years. The results will help you decide how hot, cold, wet, or windy it might be!

Date:

Astronomy

Dec. 01, 2012 Rise Set
Actual Time 7:22 AM CST 4:29 PM CST
Civil Twilight 6:49 AM CST 5:02 PM CST
Nautical Twilight 6:13 AM CST 5:38 PM CST
Astronomical Twilight 5:38 AM CST 6:12 PM CST
Moon 7:21 PM CST (12/1) 9:34 AM CST (12/1)
Length of Visible Light 10h 12m
Length of Day
9h 07m
Waning Gibbous, 91% of the Moon is Illuminated
Dec 1
Waning Gibbous
Dec 6
Last Quarter
Dec 13
New
Dec 19
First Quarter
Dec 28
Full

Hourly Weather History & Observations

Time (CST) Temp. Windchill Dew Point Humidity Pressure Visibility Wind Dir Wind Speed Gust Speed Precip Events Conditions
12:12 AM 33.8 °F 26.4 °F 32.0 °F 93% 30.11 in 3.0 mi ESE 9.2 mph - N/A   Overcast
12:33 AM 33.8 °F 27.7 °F 32.0 °F 93% 30.11 in 3.0 mi SE 6.9 mph - N/A   Overcast
12:53 AM 33.8 °F 27.7 °F 32.0 °F 93% 30.11 in 3.0 mi SE 6.9 mph - N/A   Overcast
1:12 AM 33.8 °F 27.0 °F 32.0 °F 93% 30.10 in 3.0 mi ESE 8.1 mph - N/A   Overcast
1:33 AM 33.8 °F 27.7 °F 32.0 °F 93% 30.09 in 3.0 mi ESE 6.9 mph - N/A   Overcast
1:53 AM 33.8 °F 28.6 °F 32.0 °F 93% 30.09 in 3.0 mi SE 5.8 mph - N/A   Overcast
2:12 AM 33.8 °F 26.4 °F 32.0 °F 93% 30.07 in 3.0 mi SE 9.2 mph - N/A   Overcast
2:53 AM 33.8 °F 25.8 °F 32.0 °F 93% 30.07 in 3.0 mi SE 10.4 mph - N/A   Overcast
3:33 AM 33.8 °F 27.0 °F 32.0 °F 93% 30.05 in 3.0 mi SE 8.1 mph - N/A   Overcast
4:12 AM 33.8 °F 27.0 °F 32.0 °F 93% 30.03 in 3.0 mi SE 8.1 mph - N/A   Overcast
4:32 AM 35.6 °F 28.6 °F 32.0 °F 87% 30.02 in 3.0 mi SE 9.2 mph - N/A   Overcast
4:53 AM 35.6 °F 28.6 °F 32.0 °F 87% 30.01 in 3.0 mi SE 9.2 mph - N/A   Overcast
5:13 AM 35.6 °F 29.2 °F 32.0 °F 87% 30.00 in 3.0 mi SE 8.1 mph - N/A   Overcast
5:32 AM 35.6 °F 29.9 °F 32.0 °F 87% 30.00 in 3.0 mi SE 6.9 mph - N/A   Overcast
5:53 AM 37.4 °F 32.8 °F 33.8 °F 87% 29.99 in 4.0 mi SSE 5.8 mph - N/A   Overcast
6:13 AM 37.4 °F 30.8 °F 32.0 °F 81% 29.98 in 4.0 mi SE 9.2 mph - N/A   Haze
6:32 AM 37.4 °F 31.4 °F 32.0 °F 81% 29.99 in 4.0 mi SSE 8.1 mph - N/A   Haze
6:53 AM 37.4 °F 32.1 °F 32.0 °F 81% 29.98 in 4.0 mi SE 6.9 mph - N/A   Haze
7:12 AM 37.4 °F 31.4 °F 32.0 °F 81% 29.98 in 4.0 mi SE 8.1 mph - N/A   Haze
7:33 AM 37.4 °F 32.1 °F 32.0 °F 81% 29.98 in 4.0 mi SE 6.9 mph - N/A   Haze
7:53 AM 37.4 °F 30.8 °F 32.0 °F 81% 29.96 in 4.0 mi SE 9.2 mph - N/A   Haze
8:12 AM 37.4 °F 30.8 °F 32.0 °F 81% 29.95 in 3.0 mi SE 9.2 mph - N/A   Haze
8:33 AM 37.4 °F 30.3 °F 32.0 °F 81% 29.94 in 3.0 mi SE 10.4 mph - N/A   Haze
9:12 AM 37.4 °F 31.4 °F 32.0 °F 81% 29.92 in 3.0 mi SE 8.1 mph - N/A   Haze
9:33 AM 37.4 °F 31.4 °F 32.0 °F 81% 29.92 in 3.0 mi SE 8.1 mph - N/A   Haze
9:53 AM 37.4 °F 32.1 °F 32.0 °F 81% 29.91 in 3.0 mi ESE 6.9 mph - N/A   Haze
10:12 AM 37.4 °F 31.4 °F 32.0 °F 81% 29.89 in 4.0 mi ESE 8.1 mph - N/A   Haze
10:33 AM 37.4 °F 30.8 °F 32.0 °F 81% 29.89 in 4.0 mi SE 9.2 mph - N/A   Haze
11:12 AM 39.2 °F 35.9 °F 32.0 °F 75% 29.88 in 4.0 mi ESE 4.6 mph - N/A   Haze
11:33 AM 39.2 °F 33.6 °F 32.0 °F 75% 29.86 in 5.0 mi SE 8.1 mph - N/A   Haze
11:53 AM 41.0 °F 36.4 °F 32.0 °F 70% 29.86 in 5.0 mi SE 6.9 mph - N/A   Haze
12:12 PM 41.0 °F 38.0 °F 32.0 °F 70% 29.85 in 5.0 mi SE 4.6 mph - N/A   Haze
12:33 PM 41.0 °F 37.1 °F 32.0 °F 70% 29.85 in 5.0 mi SE 5.8 mph - N/A   Haze
1:12 PM 41.0 °F 35.8 °F 32.0 °F 70% 29.82 in 5.0 mi SE 8.1 mph - N/A   Haze
1:33 PM 42.8 °F 39.3 °F 33.8 °F 70% 29.82 in 5.0 mi SE 5.8 mph - N/A   Haze
1:53 PM 42.8 °F 38.0 °F 33.8 °F 70% 29.80 in 5.0 mi SE 8.1 mph - N/A   Haze
2:12 PM 42.8 °F 39.3 °F 35.6 °F 76% 29.80 in 5.0 mi ESE 5.8 mph - N/A   Haze
2:33 PM 42.8 °F 39.3 °F 35.6 °F 76% 29.79 in 5.0 mi ESE 5.8 mph - N/A   Haze
2:53 PM 42.8 °F 39.3 °F 35.6 °F 76% 29.78 in 4.0 mi SE 5.8 mph - N/A   Haze
3:12 PM 44.6 °F 41.4 °F 37.4 °F 76% 29.77 in 4.0 mi SE 5.8 mph - N/A   Haze
3:33 PM 44.6 °F 41.4 °F 37.4 °F 76% 29.77 in 4.0 mi SE 5.8 mph - N/A   Haze
3:53 PM 44.6 °F 40.2 °F 39.2 °F 81% 29.74 in 4.0 mi SE 8.1 mph - N/A   Haze
4:12 PM 44.6 °F 42.2 °F 39.2 °F 81% 29.77 in 3.0 mi SE 4.6 mph - N/A   Haze
4:33 PM 42.8 °F - 37.4 °F 81% 29.79 in 4.0 mi Calm Calm - N/A   Haze
4:53 PM 42.8 °F - 37.4 °F 81% 29.79 in 5.0 mi Calm Calm - N/A   Haze
5:12 PM 42.8 °F 41.1 °F 37.4 °F 81% 29.79 in 4.0 mi SE 3.5 mph - N/A   Overcast
5:33 PM 44.6 °F - 41.0 °F 87% 29.79 in 1.8 mi Calm Calm - N/A   Overcast
5:53 PM 44.6 °F 42.2 °F 41.0 °F 87% 29.79 in 1.2 mi SE 4.6 mph - N/A   Overcast
6:12 PM 44.6 °F - 42.8 °F 93% 29.80 in 1.0 mi Calm Calm - N/A   Overcast
6:33 PM 44.6 °F 43.1 °F 42.8 °F 93% 29.80 in 0.8 mi SE 3.5 mph - N/A   Overcast
6:53 PM 42.8 °F 41.1 °F 41.0 °F 93% 29.80 in 0.8 mi ESE 3.5 mph - N/A   Overcast
7:12 PM 44.6 °F 43.1 °F 42.8 °F 93% 29.80 in 1.0 mi SSE 3.5 mph - N/A   Overcast
7:33 PM 44.6 °F 43.1 °F 42.8 °F 93% 29.80 in 1.2 mi SE 3.5 mph - N/A   Overcast
7:53 PM 42.8 °F 40.1 °F 41.0 °F 93% 29.80 in 1.2 mi SSE 4.6 mph - N/A   Overcast
8:12 PM 44.6 °F - 42.8 °F 93% 29.80 in 1.5 mi Calm Calm - N/A   Overcast
8:33 PM 42.8 °F - 42.8 °F 100% 29.80 in 1.5 mi Calm Calm - N/A   Overcast
8:53 PM 44.6 °F - 42.8 °F 93% 29.80 in 2.0 mi Calm Calm - N/A   Overcast
9:33 PM 42.8 °F 41.1 °F 42.8 °F 100% 29.80 in 1.5 mi East 3.5 mph - N/A   Overcast
9:53 PM 44.6 °F - 42.8 °F 93% 29.81 in 2.0 mi Calm Calm - N/A   Overcast
10:12 PM 44.6 °F - 42.8 °F 93% 29.81 in 2.5 mi Calm Calm - N/A   Overcast
10:33 PM 44.6 °F - 42.8 °F 93% 29.81 in 2.0 mi Calm Calm - N/A   Overcast
10:53 PM 42.8 °F - 41.0 °F 93% 29.81 in 2.0 mi Calm Calm - N/A   Overcast
11:13 PM 42.8 °F - 41.0 °F 93% 29.82 in 2.5 mi Calm Calm - N/A   Overcast
11:33 PM 42.8 °F - 41.0 °F 93% 29.82 in 2.5 mi Calm Calm - N/A   Mist
11:52 PM 42.8 °F - 41.0 °F 93% 29.83 in 2.5 mi Calm Calm - N/A   Scattered Clouds